Location: Texas Valley
(42.4862°N, 75.9730°W)
Time: 12:28:13
(UTC+00:00)

Tiangong - Visible Passes

Search period start: 19 April 2024 00:00
Search period end: 29 April 2024 00:00
Orbit: 371 x 379 km, 41.5° (Epoch: 19 April)

Date Brightness Start Highest point End Pass type
(mag) Time Alt. Az. Time Alt. Az. Time Alt. Az.
19 Apr -1.0 00:28:24 10° SW 00:31:01 26° SSE 00:33:26 11° E visible
19 Apr 0.0 02:04:20 10° WSW 02:05:29 21° WSW 02:05:29 21° WSW visible
20 Apr -2.0 01:01:44 10° WSW 01:04:44 52° SSE 01:06:05 28° ESE visible
21 Apr -2.3 01:35:27 10° W 01:38:31 74° S 01:38:31 74° S visible
22 Apr -2.2 00:32:41 10° WSW 00:35:44 64° S 00:38:46 10° E visible
22 Apr -0.3 02:09:13 10° W 02:10:47 27° W 02:10:47 27° W visible
23 Apr -2.3 01:06:21 10° W 01:09:26 74° S 01:10:55 27° ESE visible
24 Apr -1.9 01:40:01 10° W 01:42:56 53° SSW 01:42:56 53° SSW visible
25 Apr -2.2 00:37:03 10° W 00:40:07 68° S 00:42:54 12° ESE visible
25 Apr 0.2 02:13:49 10° W 02:14:53 17° WSW 02:14:53 17° WSW visible
26 Apr -1.5 01:10:39 10° W 01:13:34 41° SSW 01:14:47 27° SE visible
27 Apr -0.2 01:44:33 10° WSW 01:46:38 19° SSW 01:46:38 19° SSW visible
28 Apr -0.9 00:41:06 10° W 00:43:51 30° SSW 00:46:27 11° SE visible
